K5RG-3 Weather Reports


time (UTC)temp
F
wind
direction
speed
knots
gust
knots
rain 1hr
in
rain 24hr
in
rain mn
in
humidity
%
barometer
mb
20260510170035 83 108 4.3 11.3 0.00 0.00 0.00 77 1012.2
20260510164546 83 64 7.0 11.3 0.00 0.00 0.00 77 1012.4
20260510163028 83 83 3.5 9.6 0.00 0.00 0.00 78 1012.4
20260510161524 82 124 5.2 9.6 0.00 0.00 0.00 82 1012.5
20260510160027 82 54 5.2 11.3 0.00 0.00 0.00 83 1012.7
20260510154523 82 94 7.0 11.3 0.00 0.00 0.00 83 1012.7
20260510153027 82 80 4.3 8.7 0.00 0.00 0.00 81 1012.9
20260510151517 82 75 1.7 7.0 0.00 0.00 0.00 83 1012.8
20260510150014 81 126 0.9 7.8 0.00 0.00 0.00 84 1012.8
20260510144513 81 73 2.6 8.7 0.00 0.00 0.00 86 1012.8
20260510143009 80 74 0.9 8.7 0.00 0.00 0.00 86 1012.9
20260510141508 80 109 3.5 8.7 0.00 0.00 0.00 87 1012.7
20260510140006 80 75 0.9 8.7 0.00 0.00 0.00 88 1012.5
20260510134502 79 84 0.0 4.3 0.00 0.00 0.00 90 1012.4
20260510133103 78 69 0.9 4.3 0.00 0.00 0.00 90 1012.2
20260510131603 77 64 1.7 3.5 0.00 0.00 0.00 91 1011.9
20260510130051 77 86 0.0 1.7 0.00 0.00 0.00 91 1011.5
20260510124607 77 89 0.0 2.6 0.00 0.00 0.00 91 1011.2
20260510123043 77 87 0.0 0.0 0.00 0.00 0.00 91 1011.0
20260510121542 76 127 0.0 0.0 0.00 0.00 0.00 91 1010.7
20260510120039 76 127 0.0 0.0 0.00 0.00 0.00 91 1010.5
20260510114538 76 121 0.0 0.0 0.00 0.00 0.00 91 1010.2
20260510113036 76 121 0.0 0.0 0.00 0.00 0.00 91 1009.9
20260510111557 76 123 0.0 0.0 0.00 0.00 0.00 92 1009.8
20260510110036 76 123 0.0 0.0 0.00 0.00 0.00 92 1009.5
20260510104541 76 116 0.0 0.0 0.00 0.00 0.00 92 1009.3
20260510103035 76 167 0.0 2.6 0.00 0.00 0.00 92 1009.2
20260510101531 76 96 0.0 1.7 0.00 0.00 0.00 92 1009.2
20260510100030 76 203 0.0 1.7 0.00 0.00 0.00 93 1009.1
20260510094531 76 248 0.0 0.9 0.00 0.00 0.00 93 1009.0
20260510093029 76 203 0.0 1.7 0.00 0.00 0.00 93 1009.1
20260510091547 75 88 0.0 0.0 0.00 0.00 0.00 93 1009.2
20260510090029 75 77 0.0 0.0 0.00 0.00 0.00 93 1009.2
20260510084528 75 73 0.0 0.0 0.00 0.00 0.00 93 1009.1
20260510083026 75 139 0.0 0.0 0.00 0.00 0.00 93 1009.0
20260510081536 75 139 0.0 0.0 0.00 0.00 0.00 92 1009.0
20260510080031 75 79 0.0 0.0 0.00 0.00 0.00 92 1009.0
20260510074529 75 71 0.0 0.9 0.00 0.00 0.00 92 1008.8
20260510073034 75 139 0.0 0.9 0.00 0.00 0.00 92 1008.8
20260510071533 75 148 0.0 1.7 0.00 0.00 0.00 91 1008.8
20260510070025 76 134 0.0 1.7 0.00 0.00 0.00 91 1009.0
20260510064545 76 123 0.0 0.9 0.00 0.00 0.00 90 1008.9
20260510063022 76 96 0.0 0.9 0.00 0.00 0.00 89 1009.1
20260510061531 76 117 0.0 1.7 0.00 0.00 0.00 89 1009.3
20260510060028 76 152 0.0 2.6 0.00 0.00 0.00 89 1009.3
20260510054517 76 196 0.0 0.0 0.00 0.00 0.00 90 1009.4
20260510053011 77 146 0.0 1.7 0.00 0.00 0.00 90 1009.4
20260510051510 77 134 0.0 1.7 0.00 0.00 0.00 90 1009.5
20260510050007 77 80 0.9 7.0 0.00 0.00 0.00 89 1009.7
20260510044509 77 150 0.9 7.0 0.00 0.00 0.00 89 1009.8
20260510043007 77 120 0.9 12.2 0.00 0.00 0.00 90 1010.1
20260510041506 77 111 7.8 15.6 0.00 0.00 0.00 90 1010.3
20260510040007 78 107 0.9 7.0 0.00 0.00 0.00 90 1010.4
20260510034505 78 108 0.0 1.7 0.00 0.00 0.00 90 1010.0
20260510033004 78 125 0.0 6.1 0.00 0.00 0.00 90 1009.8
20260510031504 78 62 6.1 12.2 0.00 0.00 0.00 90 1010.1
20260510030002 78 66 1.7 11.3 0.00 0.00 0.00 90 1009.8
20260510024601 78 124 5.2 13.0 0.00 0.00 0.00 88 1009.7
20260510023057 79 97 0.9 3.5 0.00 0.00 0.00 88 1009.3
20260510021555 79 98 0.0 6.1 0.00 0.00 0.00 87 1009.1
20260510020054 80 85 0.9 2.6 0.00 0.00 0.00 84 1008.6
20260510014555 80 88 0.9 5.2 0.00 0.00 0.00 80 1008.2
20260510013055 81 153 0.0 0.0 0.00 0.00 0.00 78 1007.8
20260510011552 81 149 0.0 0.9 0.00 0.00 0.00 76 1007.5
20260510010052 82 115 0.0 1.7 0.00 0.00 0.00 75 1006.7
20260510004551 83 156 0.0 1.7 0.00 0.00 0.00 73 1006.9
20260510003057 85 175 0.0 0.9 0.00 0.00 0.00 64 1006.8
20260510001551 85 145 0.0 2.6 0.00 0.00 0.00 63 1006.7
20260510000055 86 138 0.0 0.0 0.00 0.00 0.00 69 1006.5
20260509234602 87 117 0.0 0.9 0.00 0.00 0.00 68 1006.2
20260509233055 87 152 0.0 2.6 0.00 0.00 0.00 69 1006.2
20260509231605 87 148 0.0 1.7 0.00 0.00 0.00 72 1006.3
20260509230054 87 144 0.0 1.7 0.00 0.00 0.00 72 1006.2
20260509224547 87 84 0.0 4.3 0.00 0.00 0.00 73 1006.1
20260509223048 87 74 1.7 4.3 0.00 0.00 0.00 74 1006.1
20260509221546 87 110 1.7 7.0 0.00 0.00 0.00 74 1006.0
20260509220045 88 104 0.9 3.5 0.00 0.00 0.00 74 1005.9
20260509214546 88 83 1.7 7.8 0.00 0.00 0.00 73 1005.9
20260509213046 89 86 1.7 10.4 0.00 0.00 0.00 72 1005.8
20260509211550 91 325 1.7 4.3 0.00 0.00 0.00 66 1005.9
20260509210055 91 245 0.9 4.3 0.00 0.00 0.00 60 1005.9
20260509204538 89 211 0.9 5.2 0.00 0.00 0.00 66 1006.0
20260509203042 89 67 0.9 2.6 0.00 0.00 0.00 67 1006.1
20260509201540 87 70 2.6 6.1 0.00 0.00 0.00 69 1006.3
20260509200034 89 46 2.6 5.2 0.00 0.00 0.00 71 1006.6
20260509194533 90 71 0.0 0.0 0.00 0.00 0.00 68 1006.6
20260509193029 89 203 0.0 7.0 0.00 0.00 0.00 65 1006.7
20260509191527 88 15 2.6 4.3 0.00 0.00 0.00 67 1006.8
20260509190031 89 297 3.5 7.8 0.00 0.00 0.00 66 1006.9
20260509184529 88 304 0.9 2.6 0.00 0.00 0.00 67 1007.0
20260509183028 86 281 0.9 4.3 0.00 0.00 0.00 71 1007.3
20260509181518 85 321 1.7 6.1 0.00 0.00 0.00 74 1007.6
20260509180017 85 342 0.9 6.1 0.00 0.00 0.00 79 1007.9
20260509174508 83 258 0.9 5.2 0.00 0.00 0.00 80 1008.4
20260509173011 83 261 0.9 8.7 0.00 0.00 0.00 80 1008.5
20260509171507 82 196 0.9 5.2 0.00 0.00 0.00 81 1008.5